Temp
17 17 18 18 18 18 18 18 17 16 16 17 17 18 19 19 19 19 19 18 18 18 18 18 19 18 18 18 18 18 18 18 18 19 19 19 19 19 19 18 18 17 17 17 17 17 17 17 17 17 17 17 17 17 17 17 17 17 16 16 16 16 16 15 15 15 15 16 16 17 17 17 17 17 17 17 16 16 16 15 15 15 14 14 14
17 17 17 17 17 18 18 18 18 18 17 16 16 17 18 19 19 19 19 19 18 18 19 18 18 18 18 18 18 18 18 18 18 18 18 18 18 18 18 18 18 17 17 17 17 17 17 17 17 17 17 17 17 17 17 17 17 16 16 16 16 16 16 16 15 15 15 15 16 16 17 17 17 17 17 17 16 16 16 16 15 15 14 14 14
17 17 18 18 17 18 19 19 20 20 19 17 16 16 17 18 19 19 19 19 19 19 19 19 18 18 18 18 18 18 18 18 18 18 18 18 18 18 18 18 18 17 17 17 17 17 17 16 16 16 16 16 16 16 17 17 16 16 16 16 16 16 16 16 16 15 15 15 15 16 16 17 17 17 17 16 16 15 15 15 15 15 14 14 14
17 17 18 19 19 20 21 21 20 19 19 19 19 17 17 17 18 19 19 19 19 19 19 19 19 18 18 18 18 18 18 18 18 18 18 18 18 18 17 17 17 17 17 17 17 17 17 17 16 16 16 16 16 16 16 16 16 16 16 16 16 16 16 16 16 15 15 15 15 16 16 16 16 16 16 16 15 15 15 15 15 15 14 14 14
17 17 18 19 19 20 20 20 20 19 19 19 20 19 19 19 18 19 19 19 19 19 19 19 19 18 18 18 18 18 18 18 18 18 18 18 18 18 17 17 17 17 17 17 17 17 17 17 17 17 16 16 16 16 16 16 16 16 16 16 16 16 15 15 16 16 15 15 15 15 16 16 16 16 16 15 15 14 14 14 14 14 14 14 14
17 17 18 18 18 19 19 18 19 20 20 19 19 19 19 19 19 19 19 19 19 19 19 19 18 18 18 18 18 18 18 18 18 18 18 18 18 17 17 17 17 17 17 17 17 17 17 17 17 17 17 17 17 17 17 16 16 16 16 16 16 16 15 15 15 15 15 15 15 15 15 16 16 15 15 15 15 14 14 14 14 14 14 14 14
17 17 18 18 18 19 18 17 18 21 21 19 18 18 18 18 18 19 19 19 19 18 18 18 18 18 18 18 18 18 18 18 18 18 18 18 18 17 17 17 17 17 17 17 17 17 17 17 17 17 17 17 17 17 17 17 16 16 16 17 16 16 15 15 15 15 15 15 15 15 15 15 15 15 15 14 14 13 13 13 13 13 14 14 14
17 17 18 18 18 19 18 18 18 19 20 18 17 17 18 18 18 18 18 19 19 19 18 18 18 18 18 18 18 18 18 18 18 18 18 18 17 17 17 17 17 17 17 17 17 17 17 17 17 17 17 17 18 18 18 17 17 17 17 17 16 16 15 15 14 14 14 14 14 15 15 15 14 14 13 13 12 12 13 13 13 14 14 14 14
17 17 17 18 18 18 17 17 17 17 18 17 17 17 18 18 18 19 18 18 18 18 18 18 18 18 18 18 18 18 18 18 18 18 17 17 17 17 17 17 17 17 17 17 17 17 17 17 17 17 17 17 18 18 18 18 17 17 17 17 16 16 15 15 14 14 14 14 14 14 14 14 14 13 13 13 14 14 14 13 13 14 14 14 14
17 17 17 17 18 17 17 17 17 17 17 17 17 17 17 18 18 18 18 18 18 18 18 17 18 18 18 18 18 18 18 18 18 18 18 18 17 17 17 17 17 17 17 17 17 17 17 17 17 17 17 17 17 17 18 18 17 17 17 17 17 16 16 15 14 14 14 14 14 14 14 14 14 14 14 15 15 15 14 14 13 13 13 13 13
17 17 17 17 17 17 17 17 17 17 18 18 18 18 18 18 17 17 17 17 18 18 18 18 18 18 17 17 17 17 17 18 18 18 18 18 18 17 17 17 17 17 17 17 17 17 17 16 17 17 17 17 17 17 17 17 17 17 17 17 17 17 17 16 15 15 15 15 14 14 14 14 15 15 15 15 15 14 14 14 13 12 12 12 12
17 17 17 17 17 17 17 17 17 18 18 18 19 19 18 17 17 17 17 17 17 17 17 17 18 18 17 16 16 16 17 17 18 18 18 18 18 18 17 17 17 17 17 17 17 17 17 16 16 17 17 17 17 17 17 17 17 17 17 17 17 17 17 17 16 16 16 15 15 15 15 15 15 15 15 15 15 14 14 13 13 13 13 12 12
17 17 17 17 17 17 17 17 17 18 18 18 19 18 18 17 17 17 18 17 17 16 15 16 16 17 16 16 17 17 17 17 17 18 18 18 18 18 18 17 17 17 17 17 17 17 17 16 16 16 16 17 17 17 17 17 17 17 16 16 16 16 16 17 17 17 16 16 16 16 16 16 16 16 16 16 15 14 13 13 13 13 13 13 14
17 17 17 17 17 17 17 17 17 18 18 18 18 17 16 16 17 17 17 16 16 15 15 16 16 17 17 16 17 18 18 17 17 18 18 18 18 18 18 17 17 17 17 17 17 17 17 17 16 17 17 17 17 17 17 17 17 17 16 16 16 16 16 16 16 16 16 16 16 16 16 16 16 16 17 16 16 15 15 14 14 14 14 14 15
17 17 17 17 17 17 17 17 17 17 17 17 17 16 16 16 16 16 16 16 16 16 16 16 16 17 17 17 16 17 17 17 17 18 18 19 18 18 17 17 17 17 17 17 18 18 17 17 17 17 17 17 17 17 17 17 17 17 16 16 16 16 16 16 16 16 16 16 16 16 16 16 16 17 17 17 16 16 16 16 16 15 14 14 13
16 17 17 17 17 17 17 17 16 17 16 16 16 16 16 16 16 16 16 16 16 16 16 16 16 17 17 17 16 16 17 17 18 18 19 19 18 18 17 17 17 17 17 17 18 18 18 18 17 17 17 17 18 18 18 17 17 16 16 16 16 16 16 17 16 16 16 16 16 16 16 16 16 16 16 17 16 16 15 15 15 14 13 12 12
16 16 16 16 16 16 16 16 16 16 16 16 16 16 16 16 16 16 16 16 15 16 16 16 17 17 17 17 16 16 17 17 17 19 20 19 18 18 17 17 17 17 17 17 17 17 18 18 18 18 17 17 18 18 18 17 17 16 16 16 16 16 16 17 16 16 16 16 16 16 16 16 16 16 16 16 16 16 15 14 13 13 12 11 11
16 16 16 17 16 16 16 16 16 16 16 16 16 16 16 16 16 16 16 16 16 16 16 16 17 17 17 17 16 16 17 17 18 19 20 19 18 17 17 17 17 17 17 17 17 17 17 17 18 18 18 18 18 18 17 17 17 16 16 16 16 16 16 16 16 16 15 15 15 15 16 16 16 16 16 16 16 15 14 14 14 14 13 12 12
15 15 16 16 16 16 16 16 16 16 16 16 16 17 17 17 17 16 16 16 16 16 16 16 16 16 16 17 17 16 17 18 19 19 20 19 18 17 16 16 16 17 17 17 17 16 16 17 17 17 17 18 18 18 17 17 17 17 16 16 15 15 16 17 16 16 16 15 15 16 16 16 16 16 16 16 15 15 15 15 15 14 13 13 13
15 15 15 15 16 16 16 16 16 16 16 17 17 17 17 17 16 16 16 16 16 16 16 16 16 16 16 16 16 16 17 18 19 19 20 19 18 17 16 15 16 17 17 17 16 16 16 16 16 17 17 17 18 18 18 17 17 17 17 16 16 16 17 17 16 16 16 16 16 16 16 16 16 16 16 16 15 15 15 15 15 15 14 14 13
14 15 16 16 16 16 16 16 16 16 17 17 17 16 17 17 16 16 16 16 16 16 16 16 16 16 16 16 16 16 16 17 18 19 20 19 18 18 16 16 16 17 17 17 16 16 16 16 16 17 16 16 17 18 18 18 17 17 17 17 17 18 18 17 17 16 16 16 16 16 16 16 16 16 16 16 15 15 15 15 15 15 15 14 14
12 13 15 15 16 16 16 16 16 16 16 16 16 16 16 16 16 16 16 15 15 15 15 15 15 15 16 16 16 16 16 16 17 18 18 18 18 18 17 17 17 17 17 17 16 16 16 16 16 17 17 16 17 17 17 18 17 17 17 18 18 18 17 17 17 16 15 15 15 15 15 15 15 15 15 15 15 15 15 15 15 15 14 15 15
11 12 13 14 15 16 16 16 16 16 16 16 16 16 16 16 15 15 15 15 15 15 15 14 14 14 15 15 15 15 16 16 16 17 18 17 17 17 18 17 17 17 17 17 16 16 16 16 16 17 17 17 17 17 17 17 17 17 17 17 17 17 17 16 16 16 15 15 15 14 14 15 15 15 15 15 15 15 15 15 15 15 14 14 14
9 10 11 12 13 14 15 16 16 16 16 16 15 15 15 15 15 15 15 15 14 14 14 14 14 14 14 15 15 15 15 15 15 16 17 17 17 17 17 18 17 17 17 17 17 17 16 16 16 17 18 17 17 17 17 17 18 18 18 17 17 16 16 15 15 15 15 14 14 14 14 15 15 15 15 15 15 15 15 15 15 14 14 13 13
9 9 9 10 11 12 13 14 15 16 16 15 15 15 15 15 14 14 14 14 14 14 14 14 14 14 14 14 15 15 15 15 15 15 16 16 16 17 17 17 17 17 17 17 17 17 17 17 17 18 18 17 17 16 16 17 18 18 18 17 17 16 15 15 15 14 14 14 14 14 14 15 15 15 15 15 15 15 15 15 14 14 13 13 12
9 9 9 9 9 10 11 12 14 15 16 15 15 15 15 14 14 14 14 14 14 14 14 14 14 14 14 14 15 15 15 15 15 15 15 16 16 16 16 16 17 17 17 17 17 17 16 16 16 17 18 17 16 16 16 17 17 17 17 16 16 15 15 14 14 14 14 14 14 14 15 15 15 15 14 14 14 14 14 14 14 13 13 12 12
8 8 8 8 9 9 10 10 12 13 14 15 15 15 14 14 14 14 14 14 14 14 14 14 14 14 14 14 15 15 15 15 15 15 15 15 15 16 16 16 16 16 16 16 16 16 16 16 16 16 17 16 16 16 16 16 16 16 16 15 15 15 15 15 15 15 14 14 15 15 15 15 14 14 13 13 14 14 14 14 14 13 13 12 11
8 8 8 8 9 9 9 10 10 11 13 14 14 14 14 14 14 14 14 14 14 14 14 14 14 14 14 14 14 15 15 15 15 15 15 15 15 15 15 15 15 16 16 16 15 15 15 15 15 15 15 15 14 14 14 14 15 15 15 15 14 14 14 14 14 14 14 14 14 14 14 14 13 13 13 13 13 13 14 14 14 13 13 11 10
8 8 9 9 9 9 9 10 10 10 11 12 14 15 15 15 15 14 15 15 15 15 15 14 14 15 15 15 15 15 15 15 15 15 15 16 16 16 16 16 16 15 16 16 16 15 14 14 14 14 14 13 12 12 12 13 13 13 14 14 13 13 13 13 13 13 13 13 13 13 13 13 13 12 12 12 12 13 13 13 13 12 12 11 10
8 8 9 9 9 9 9 9 10 10 11 11 13 14 15 16 16 16 16 16 16 16 16 16 16 15 15 15 15 15 15 16 17 16 16 16 17 16 17 17 17 16 16 16 15 14 13 13 13 12 13 12 11 11 11 11 11 11 11 11 11 11 12 12 13 13 13 13 13 13 13 13 12 12 11 11 11 12 12 12 12 11 11 10 10
8 8 9 9 9 8 8 8 9 10 10 11 12 13 14 14 15 16 17 17 17 17 17 17 17 16 16 16 16 16 16 17 17 17 16 16 16 16 16 17 16 16 16 15 14 13 12 12 12 12 12 12 12 12 12 11 11 10 10 10 10 11 11 11 12 12 12 12 12 12 12 12 12 11 11 11 11 11 11 11 10 10 10 10 10
7 8 8 8 8 7 7 7 8 9 10 11 11 12 13 13 14 15 16 16 16 16 17 17 16 16 16 16 16 16 16 16 16 16 16 16 16 16 16 16 16 15 15 14 13 12 12 11 11 12 12 12 12 13 12 11 11 11 10 10 9 10 11 11 12 12 12 12 11 11 12 12 12 11 11 10 10 10 10 10 9 9 9 9 9
7 8 8 8 7 7 7 7 8 9 10 11 11 12 12 13 13 14 15 15 15 15 16 16 16 16 16 16 16 16 16 16 17 16 16 16 16 16 16 15 15 15 14 13 12 12 12 12 12 12 12 12 12 13 12 12 12 11 11 10 10 10 11 12 11 11 11 11 11 11 12 12 12 11 10 10 9 9 9 9 8 8 8 8 8
6 7 8 7 7 7 7 8 9 10 10 11 11 12 12 13 13 14 14 14 14 14 14 15 15 15 15 15 15 16 16 16 16 16 16 16 16 16 15 15 14 13 12 12 12 12 12 12 12 12 12 12 12 12 12 12 12 11 11 11 11 11 11 10 10 10 10 10 10 11 11 11 11 10 10 9 8 8 8 8 8 7 7 7 7
6 7 7 7 7 7 7 8 9 11 11 11 11 12 12 13 13 13 14 14 13 13 14 14 15 15 15 15 15 16 16 16 16 16 15 15 15 15 14 12 11 10 10 11 11 12 12 12 12 12 12 12 12 12 12 12 12 12 12 11 11 11 10 10 9 10 10 10 10 10 10 9 9 10 10 9 8 8 7 7 7 7 7 7 7
6 6 7 6 6 7 7 7 8 10 11 11 12 12 13 13 13 13 14 14 14 14 14 14 15 15 15 16 16 16 15 15 16 15 15 15 14 14 12 11 10 9 10 10 11 12 12 12 12 12 12 12 12 12 12 12 12 12 12 12 11 11 10 10 10 10 10 10 10 9 9 9 9 10 10 8 7 7 8 7 7 7 7 7 7
5 6 6 5 6 7 7 7 7 9 10 11 12 12 13 13 13 13 13 13 13 13 14 14 15 14 14 15 15 15 15 15 15 15 14 13 13 13 12 11 10 10 10 10 10 11 12 12 12 12 12 12 12 12 12 12 12 12 12 12 11 11 10 10 10 10 10 10 9 9 9 9 9 9 9 8 7 7 7 7 7 7 7 7 7
5 5 5 5 6 7 7 6 7 7 8 9 9 10 11 12 12 13 13 13 13 13 13 14 14 14 14 14 15 15 15 14 14 13 12 12 11 11 11 11 11 11 10 10 10 11 11 12 12 12 12 12 13 13 13 13 12 12 12 12 11 11 11 10 10 10 10 9 9 9 9 9 9 8 8 8 7 7 7 7 7 6 6 6 6
4 4 5 5 5 6 6 6 6 7 7 7 8 8 9 9 10 11 11 12 13 13 13 13 13 14 14 14 15 14 14 13 13 12 12 11 11 11 11 11 11 11 11 11 10 10 11 11 12 12 12 12 13 13 13 13 13 12 12 12 11 11 10 10 10 9 9 9 9 9 9 9 9 8 8 7 7 7 7 7 6 6 6 5 6
3 3 4 4 5 5 6 6 6 6 7 7 7 7 7 8 8 8 9 10 10 11 12 13 13 13 14 14 15 14 14 13 13 13 12 12 11 11 11 11 11 11 11 11 12 11 11 11 12 12 12 13 13 13 13 13 13 13 12 12 11 11 10 10 10 9 9 9 9 9 9 9 9 8 7 7 7 7 7 7 6 6 6 6 6
2 3 3 3 4 5 5 6 6 6 6 6 7 7 7 7 7 7 8 8 8 8 9 10 11 12 12 13 14 14 14 14 13 13 13 13 12 12 11 11 11 11 11 12 12 12 12 12 12 13 13 13 13 13 13 13 13 13 12 12 11 11 10 10 10 10 9 9 8 8 9 9 8 8 7 7 7 7 7 7 7 6 6 6 6
1 2 2 2 3 4 4 5 6 6 6 6 6 6 6 6 7 6 7 7 7 7 8 8 8 10 11 11 12 13 13 14 14 13 13 13 13 12 12 11 11 11 12 12 12 13 13 12 12 13 13 13 13 12 12 12 12 12 12 12 11 11 10 10 10 10 9 9 9 9 9 8 8 8 8 7 7 7 6 6 7 6 6 6 6
1 1 1 2 2 2 3 4 4 5 6 6 6 6 6 6 6 6 6 6 6 6 7 7 7 8 9 10 10 10 11 12 13 13 13 13 13 12 12 12 11 11 12 12 12 13 13 13 12 12 12 12 13 13 12 12 12 12 12 11 11 11 10 10 10 9 9 9 9 9 8 8 8 7 7 7 7 6 6 6 6 6 6 6 6
0 0 1 1 1 1 2 2 3 3 4 5 5 6 6 6 6 6 6 6 6 6 6 6 6 6 7 8 9 9 8 9 10 10 11 11 11 11 11 11 11 11 11 11 11 12 12 12 12 12 12 12 12 12 12 12 12 12 12 11 11 11 10 10 10 10 10 9 9 8 8 8 7 7 7 6 6 6 6 6 6 5 5 5 5
-1 -1 -0 -0 0 0 0 1 1 2 3 3 4 4 5 5 5 5 5 5 6 6 6 6 6 6 6 6 7 7 7 7 7 8 8 9 9 9 10 10 10 10 10 10 10 11 11 11 11 11 11 11 11 11 12 12 12 12 12 12 11 11 11 10 10 10 10 9 9 8 8 7 7 6 6 6 6 6 5 5 5 5 5 5 5
-2 -1 -1 -1 -1 -1 -1 -0 0 1 1 2 2 2 3 3 3 4 4 4 5 5 5 5 5 5 5 5 6 6 6 6 6 7 7 8 8 8 8 8 9 9 9 9 9 10 10 10 10 10 11 11 11 11 11 11 11 11 11 11 11 11 11 11 11 10 9 9 9 8 8 7 7 6 6 6 5 5 5 5 5 5 5 5 5
-2 -2 -2 -2 -2 -1 -1 -1 -1 -0 0 0 1 1 1 1 2 2 2 3 3 4 4 4 5 5 5 5 5 5 5 6 6 6 6 7 7 7 7 7 8 8 8 8 8 9 9 9 9 9 10 10 10 10 10 10 10 11 11 11 11 11 11 11 10 10 10 9 9 8 8 7 6 6 6 5 5 5 5 5 5 5 5 5 5
-3 -3 -3 -3 -2 -2 -2 -2 -2 -2 -1 -0 -0 -1 -0 -0 -0 -0 0 1 1 2 2 2 3 3 3 3 4 4 4 5 5 5 5 6 6 7 7 7 7 7 7 7 7 7 8 8 8 8 8 9 9 9 9 9 9 10 10 10 11 11 11 11 10 10 10 9 9 8 8 7 6 6 5 5 5 5 4 4 4 4 4 4 4
-4 -4 -4 -3 -3 -3 -3 -3 -3 -3 -2 -2 -1 -1 -1 -1 -1 -2 -1 -1 -1 -1 -0 0 1 1 1 2 2 2 3 3 3 4 4 4 5 6 6 6 7 7 7 7 7 7 7 7 7 7 7 7 8 8 8 8 9 9 9 9 10 10 10 10 10 10 9 9 9 8 7 7 6 6 5 5 5 4 4 4 4 4 4 4 4
-4 -4 -4 -4 -4 -4 -4 -4 -4 -4 -3 -3 -3 -3 -2 -2 -2 -3 -3 -3 -2 -2 -2 -2 -1 -1 -1 -0 0 0 1 1 1 2 2 3 3 4 5 5 6 6 6 6 6 7 7 7 7 7 7 7 7 7 7 8 8 8 8 8 9 9 9 9 9 9 9 9 8 8 7 7 6 6 5 5 5 4 4 4 4 4 3 3 3
-5 -5 -5 -5 -5 -5 -4 -4 -4 -4 -4 -4 -4 -4 -4 -3 -3 -4 -4 -4 -4 -4 -3 -3 -3 -3 -2 -2 -2 -1 -1 -1 -1 -0 0 1 2 3 3 4 4 5 5 5 6 6 6 6 7 7 7 7 7 7 7 7 7 7 8 8 8 8 8 8 8 8 8 8 8 8 7 7 6 6 5 5 4 4 4 4 4 3 3 3 3
Height
718 721 723 724 726 728 729 732 741 748 753 754 753 753 754 755 757 760 763 766 767 769 772 774 777 780 781 783 784 786 787 790 792 794 796 797 798 800 802 804 806 808 811 813 815 816 818 820 821 823 826 827 828 830 831 832 834 835 837 839 842 844 846 848 848 848 849 851 853 854 854 854 855 856 857 858 859 860 862 864 866 867 869 870 872
714 717 721 723 725 726 727 730 736 741 748 754 757 755 754 753 755 757 760 763 766 768 770 773 776 778 780 781 782 784 785 787 789 791 793 794 796 797 799 801 804 806 808 810 812 814 816 817 819 821 823 824 825 826 828 829 831 832 834 836 839 842 843 844 844 845 846 848 850 851 852 852 853 853 854 855 857 858 860 862 863 865 867 868 870
710 714 717 720 723 725 726 728 732 735 740 749 754 756 755 753 753 755 758 761 764 766 768 771 774 776 777 779 780 782 783 785 786 788 789 791 793 794 796 799 801 803 805 807 809 811 813 814 816 818 820 821 822 824 825 826 828 829 830 833 835 838 840 840 841 842 843 845 847 848 849 850 850 851 852 853 855 856 858 860 861 863 865 866 868
708 711 714 716 719 722 723 724 729 733 737 741 744 748 751 752 752 753 756 758 761 763 765 768 771 773 775 776 778 779 780 782 784 785 787 788 790 792 794 796 798 800 802 804 806 809 810 812 813 815 817 819 820 821 822 823 825 826 827 829 831 834 836 837 838 839 840 842 844 845 847 848 848 849 850 851 852 854 856 858 860 861 863 864 866
705 708 711 714 715 717 719 721 724 729 733 735 737 738 741 744 747 750 753 756 758 760 762 764 767 769 771 773 775 776 778 779 781 782 784 786 787 789 791 793 795 797 799 801 803 806 807 809 810 813 815 816 817 819 820 821 822 823 825 826 828 831 833 834 835 836 837 838 840 842 844 845 846 846 847 849 850 852 854 856 857 859 861 863 864
703 705 707 710 712 713 716 718 719 721 725 729 733 735 736 738 741 744 748 752 755 756 758 760 763 765 767 770 772 773 775 776 777 779 781 783 785 787 789 790 792 794 796 798 800 802 804 806 808 810 812 813 814 816 817 819 820 821 822 823 825 827 829 830 831 832 833 835 837 839 840 842 843 844 845 847 848 850 852 854 855 857 859 860 862
700 701 704 706 708 710 713 715 715 714 716 722 729 733 735 737 739 742 745 748 751 753 755 757 759 761 764 766 768 770 772 773 774 775 777 780 782 784 786 788 790 791 792 794 796 798 801 803 805 807 809 810 812 813 815 816 818 818 819 821 822 824 825 826 828 829 830 832 833 835 837 839 840 842 843 845 847 848 850 851 853 855 856 858 859
697 699 700 702 705 707 709 712 712 710 710 717 726 731 733 735 737 740 743 746 748 750 752 755 757 759 762 764 765 767 769 770 771 772 774 776 779 781 783 785 787 788 789 791 793 795 797 800 802 804 806 807 809 811 812 814 815 816 817 819 820 821 822 823 824 825 827 828 830 832 834 836 838 839 841 843 845 846 847 848 850 851 853 855 857
694 696 697 698 700 703 706 708 710 708 707 713 723 729 732 734 735 736 739 742 746 749 751 752 754 757 759 761 763 765 766 766 767 769 771 773 775 778 780 782 783 785 787 788 790 792 794 796 799 800 802 804 806 808 810 811 813 814 815 816 818 819 820 820 821 822 823 825 827 829 831 833 835 837 838 840 841 842 843 845 847 849 852 854 855
691 693 694 696 698 701 705 707 707 706 705 710 718 725 729 733 735 735 735 736 739 743 748 751 753 755 757 759 761 763 763 763 765 766 768 771 773 775 777 779 781 782 784 786 787 789 791 793 795 797 799 801 803 805 806 808 810 811 813 814 815 816 817 817 818 818 820 821 823 826 828 830 831 833 834 836 837 839 841 842 844 847 850 852 853
689 690 691 693 696 699 702 704 704 703 703 708 714 720 725 729 732 734 735 735 734 735 740 746 749 752 755 758 761 762 761 761 763 765 767 769 771 773 775 777 778 780 781 783 785 786 788 790 792 794 796 798 800 801 803 805 806 808 810 811 812 813 814 814 814 815 816 817 819 822 824 825 827 829 831 833 835 837 838 839 842 844 847 849 850
686 687 689 691 693 696 698 700 701 700 702 706 711 715 720 724 727 730 732 734 735 735 737 740 742 744 749 754 758 760 761 761 762 763 765 767 769 771 773 775 776 777 778 779 782 783 785 787 789 791 793 795 796 798 799 801 803 805 807 808 810 811 811 812 811 812 812 813 815 818 819 821 824 826 828 830 832 834 835 837 839 841 843 845 846
684 685 686 688 690 692 695 696 698 699 701 704 708 712 715 718 721 724 726 729 732 735 738 740 741 743 745 748 751 753 755 759 761 761 762 765 767 769 771 772 774 775 775 776 778 780 782 784 786 788 790 792 793 795 796 797 799 801 803 805 807 808 809 809 809 809 809 810 811 812 814 817 820 822 824 827 829 831 833 834 836 837 839 841 841
681 682 684 686 687 690 692 694 695 697 699 702 706 710 713 716 717 720 722 725 727 730 733 735 737 740 741 743 746 747 748 752 757 759 759 760 763 765 767 769 771 772 773 773 774 776 777 779 781 783 786 788 790 791 792 794 796 797 799 801 802 805 806 807 807 807 806 806 807 808 810 813 816 818 822 824 826 827 829 830 832 833 835 836 838
679 680 682 684 685 688 690 692 694 695 698 701 704 706 710 713 715 717 719 721 724 725 727 729 731 734 736 739 742 744 744 746 750 754 756 756 757 760 763 766 767 768 770 770 770 771 773 775 777 779 781 783 785 787 789 790 792 793 794 796 798 800 802 803 804 804 803 803 803 804 807 810 813 816 819 821 823 824 826 827 828 830 832 834 836
677 678 680 682 684 686 688 690 692 694 696 699 702 704 706 708 711 713 715 717 720 722 723 725 727 730 732 734 736 739 741 743 744 745 748 750 752 755 759 762 763 764 765 766 766 767 769 771 773 774 776 778 781 783 785 786 788 789 790 792 794 796 798 799 801 801 801 801 801 802 804 806 809 813 815 818 820 822 824 825 827 829 831 833 835
675 676 678 679 682 684 686 688 689 691 693 695 697 699 702 704 706 709 711 713 715 717 718 719 721 723 726 728 730 732 734 737 738 737 737 741 746 751 756 758 759 760 761 762 763 764 764 765 767 769 771 774 776 779 781 783 784 785 786 788 790 792 794 796 798 798 799 799 799 799 801 803 806 809 811 814 817 819 821 823 825 826 829 831 833
677 676 676 677 679 681 684 685 687 689 690 691 693 694 697 699 702 704 706 708 710 712 713 714 716 719 721 724 726 727 728 731 733 733 732 735 739 745 750 752 754 755 756 758 759 760 761 761 763 764 766 768 771 774 777 779 780 782 783 784 786 787 790 792 794 795 796 796 796 797 798 800 802 805 808 811 813 816 818 819 821 823 825 827 829
679 678 677 677 678 679 681 683 685 687 688 688 689 690 692 695 697 700 703 705 706 708 710 712 713 714 717 719 721 722 723 725 728 729 729 731 735 739 744 748 749 750 751 753 754 755 757 758 759 760 762 763 766 769 772 775 776 777 779 781 782 783 785 788 789 790 791 792 792 793 794 796 798 801 804 807 809 811 814 816 818 820 822 824 826
680 679 678 677 677 678 679 681 682 684 685 685 686 687 689 691 694 696 699 701 703 704 706 708 709 710 712 714 716 717 718 719 722 724 725 726 729 733 738 743 745 745 747 749 751 752 753 754 755 757 758 760 761 763 766 769 772 773 775 776 777 779 782 784 785 786 787 788 788 789 791 793 795 797 800 803 805 807 810 813 815 816 818 820 822
679 678 678 677 677 677 677 678 679 681 681 683 684 686 687 688 690 692 695 697 699 701 702 703 704 705 707 709 710 712 713 715 717 719 720 721 723 726 731 735 738 740 742 745 747 749 750 750 751 752 754 756 757 758 759 762 766 769 769 770 773 775 778 780 781 782 783 784 785 786 787 789 791 793 796 799 801 804 806 808 811 813 815 817 819
680 678 678 677 677 677 677 677 678 678 679 681 682 683 685 686 688 689 692 694 695 697 698 699 701 702 702 704 705 707 709 711 711 713 715 718 719 721 723 726 729 733 736 739 742 744 745 746 747 748 750 752 752 753 754 756 760 763 764 766 770 772 774 776 777 779 779 780 781 782 783 784 787 789 792 794 797 800 802 805 808 810 812 814 816
680 679 678 677 677 677 677 677 677 676 677 678 679 680 682 684 686 687 689 691 692 694 695 696 698 699 699 699 700 702 705 707 707 706 708 712 716 718 719 721 723 727 730 733 736 738 740 741 743 744 746 748 749 748 749 750 753 756 759 762 766 768 771 772 774 774 775 776 777 777 778 780 782 785 787 790 793 796 799 802 805 807 810 812 814
681 679 678 677 676 676 676 676 676 675 675 675 676 677 679 681 683 684 686 688 689 690 691 693 695 696 696 695 696 697 700 703 704 702 702 706 710 714 716 718 720 723 726 728 730 731 733 735 737 739 742 744 745 745 745 745 746 749 753 758 761 764 766 768 769 770 771 772 772 773 774 776 778 780 783 786 790 794 797 800 802 804 806 809 811
683 681 679 677 676 675 675 674 673 673 673 673 673 674 675 677 679 680 682 684 686 687 688 689 691 692 692 692 692 692 694 697 700 699 699 701 705 709 712 715 717 718 720 721 724 725 727 729 733 736 737 739 741 743 742 740 740 743 748 753 755 758 761 763 765 766 766 767 768 769 770 772 774 776 780 784 787 790 793 796 798 801 803 806 808
684 682 680 678 676 675 673 672 671 670 670 670 670 671 672 673 675 676 678 680 681 682 684 685 687 688 689 688 688 689 691 693 694 695 696 698 702 705 708 710 711 713 714 716 720 723 725 727 730 732 733 735 738 738 737 735 736 740 744 748 750 752 755 757 760 760 761 762 763 765 766 768 771 773 776 780 783 786 790 792 794 797 799 801 804
684 682 680 677 675 674 672 670 669 668 668 667 667 668 669 670 671 673 674 676 677 678 680 682 683 684 684 684 685 685 686 687 688 690 692 694 697 700 702 703 705 708 710 713 717 720 723 725 726 728 731 733 734 734 733 733 734 736 738 742 744 746 749 751 753 755 755 756 758 760 763 765 767 768 771 775 779 782 785 788 790 793 795 798 801
683 680 678 676 674 672 671 669 668 667 665 664 664 663 664 665 666 667 668 669 671 672 674 676 678 678 679 679 680 681 681 681 682 684 686 689 691 694 696 697 700 703 706 709 713 717 719 721 722 725 728 729 730 731 731 730 729 729 731 733 737 739 743 746 749 750 751 753 754 756 758 760 762 764 766 770 774 778 781 784 786 789 791 794 796
681 679 676 674 672 670 668 666 665 663 662 661 660 658 658 659 660 660 662 663 664 665 667 669 671 672 673 674 674 675 675 674 675 677 680 682 684 686 688 690 693 696 699 703 708 711 714 715 717 719 722 723 725 726 725 724 724 724 724 726 730 733 736 739 742 745 747 749 750 751 753 755 757 759 762 765 769 773 777 780 782 785 787 789 791
679 676 674 672 669 667 665 662 660 659 657 656 655 654 653 653 654 655 656 658 660 661 662 663 665 667 668 668 668 668 668 668 670 672 674 676 678 680 682 684 687 690 693 698 703 705 707 709 711 712 714 716 718 719 719 719 719 719 720 721 724 727 730 731 734 738 741 743 744 746 748 750 752 754 757 760 764 768 772 775 778 780 782 784 786
679 675 673 670 667 664 661 657 655 653 652 651 651 650 649 649 649 650 651 653 656 658 659 660 661 663 664 664 664 665 665 667 669 670 671 673 675 677 679 681 684 686 689 694 698 699 701 704 706 707 708 710 712 713 713 713 713 713 714 715 718 722 724 725 728 731 734 736 739 741 742 744 747 749 751 754 758 762 766 770 774 776 778 779 781
679 675 672 668 664 660 655 651 648 646 645 644 645 645 645 646 645 646 647 649 651 653 655 656 658 659 660 661 662 663 664 665 667 668 669 671 673 675 677 679 681 684 687 690 692 694 696 699 701 702 703 705 706 706 707 707 707 707 708 709 712 715 717 719 722 725 728 730 732 734 736 738 741 744 746 750 753 757 761 765 768 771 774 776 777
676 672 668 664 660 655 649 643 640 638 637 637 639 640 641 642 642 642 643 646 648 650 651 652 653 654 656 658 659 660 661 662 663 665 666 668 670 672 675 677 678 681 683 686 687 690 692 694 695 696 697 698 699 700 700 701 701 701 702 703 705 707 710 713 717 720 723 724 725 726 727 730 734 738 742 745 748 752 755 759 762 766 769 771 773
672 668 664 661 655 648 642 636 632 630 630 631 633 635 637 638 639 640 641 642 644 645 646 647 648 650 651 653 655 656 657 658 659 661 663 665 667 670 672 674 675 677 679 681 683 685 687 689 689 690 691 692 694 695 695 695 696 696 696 697 699 702 706 709 712 714 717 720 722 722 722 724 727 731 736 740 743 747 750 753 757 760 763 765 767
671 666 662 659 652 643 637 632 627 624 625 627 628 631 634 636 638 639 639 639 640 640 641 642 643 644 646 647 649 650 652 653 655 657 659 661 664 667 669 670 671 673 675 677 678 680 681 682 683 684 685 686 687 689 690 690 690 690 690 692 694 698 701 704 706 708 711 714 717 719 721 723 724 726 728 731 735 739 743 747 751 754 756 759 762
672 668 663 657 650 643 639 635 628 622 622 624 626 628 631 633 635 637 638 638 638 638 638 638 639 641 642 643 644 646 647 649 651 653 655 658 660 663 664 664 666 668 669 671 672 674 675 676 677 679 680 681 682 683 684 685 684 684 684 686 689 692 695 696 698 702 705 707 710 714 718 720 721 722 723 725 727 730 734 738 742 746 749 752 755
675 671 665 659 652 645 643 641 633 624 621 623 625 626 628 631 633 635 636 637 637 637 637 637 638 639 639 639 641 642 644 645 647 649 651 654 656 657 658 659 660 662 663 665 667 668 669 670 671 673 675 676 676 677 678 679 679 679 680 682 684 687 689 690 692 695 698 701 705 708 711 713 715 717 718 719 721 724 727 731 735 739 743 747 750
677 673 668 662 656 651 648 644 636 627 623 624 625 627 628 630 632 633 634 634 635 635 635 635 636 636 636 636 638 640 641 642 644 645 646 648 650 652 653 654 655 656 657 659 661 663 664 664 666 667 669 670 671 671 671 671 673 674 676 678 680 682 685 686 688 691 693 696 699 702 704 705 708 711 713 714 715 718 722 725 729 733 737 741 744
677 673 669 663 659 657 654 648 639 631 628 627 629 630 630 632 633 634 634 634 633 633 633 633 633 633 633 634 636 637 638 639 639 639 641 642 644 646 648 650 651 652 653 654 656 658 659 660 660 661 662 663 664 664 664 665 667 669 671 673 675 678 680 682 684 686 688 691 693 695 697 699 702 705 708 710 711 713 715 718 721 725 730 734 736
680 675 670 666 662 660 657 650 643 637 634 633 633 633 633 635 635 635 635 634 633 632 632 632 631 631 631 632 632 633 633 633 634 634 636 637 639 640 642 644 646 647 648 650 651 652 653 654 654 654 655 655 656 657 658 660 662 664 666 668 669 671 673 675 677 680 682 684 687 689 692 694 697 700 702 704 705 707 708 711 715 720 724 727 730
683 679 674 670 667 663 657 651 646 643 640 639 638 637 638 638 638 637 637 636 634 633 633 632 631 630 630 629 629 629 628 628 628 630 631 631 633 635 636 638 639 641 642 644 645 645 646 646 647 647 648 649 650 651 653 655 657 659 661 663 664 666 668 670 672 675 677 679 681 684 687 689 692 694 695 696 698 701 703 705 708 712 717 721 725
686 682 678 674 670 666 660 655 651 648 646 645 644 643 643 642 642 641 640 639 637 635 634 633 631 629 628 627 627 627 626 625 624 625 626 626 628 629 630 631 634 635 637 637 638 639 640 640 640 641 641 643 644 646 648 650 651 653 655 656 658 660 662 664 666 669 671 674 676 678 680 683 685 687 688 690 693 696 698 700 702 705 708 713 718
689 685 682 678 674 670 666 662 659 656 654 652 651 650 648 647 646 645 643 641 639 637 636 634 632 630 628 627 625 625 625 624 623 622 623 623 624 625 626 627 629 630 631 632 633 634 635 635 635 636 637 638 639 640 642 644 645 647 649 650 651 653 655 657 660 663 665 668 670 672 674 676 678 680 682 685 688 690 692 694 697 699 703 706 711
692 688 685 681 677 673 670 667 664 662 660 659 657 655 653 651 649 648 646 643 641 640 638 636 634 632 630 628 626 625 626 625 624 622 621 622 622 623 624 625 626 627 628 629 630 631 631 631 632 633 634 635 636 637 638 639 641 642 644 645 646 647 649 651 653 655 657 660 663 666 668 670 672 674 676 679 682 684 686 688 690 694 698 702 706
696 692 688 684 681 678 674 671 669 666 664 662 659 657 655 654 652 651 649 646 644 642 640 638 636 633 632 630 628 627 627 628 627 624 621 620 621 622 622 624 625 625 626 627 627 628 629 629 630 630 631 632 633 634 635 636 636 637 638 639 640 641 642 644 647 649 651 653 656 659 662 663 665 667 669 672 674 677 679 681 684 687 692 696 700
699 696 693 689 686 683 679 677 674 671 668 666 663 661 659 657 655 653 652 650 648 646 643 641 638 636 635 633 632 630 629 631 631 627 622 620 620 621 621 622 623 623 623 624 625 625 626 627 628 628 629 630 630 631 631 632 633 633 634 634 635 636 638 640 643 646 648 649 652 654 656 658 660 661 663 666 669 671 674 677 679 681 684 688 692
703 700 697 694 691 688 684 681 679 676 673 671 669 667 665 662 660 658 655 653 651 650 648 646 644 642 639 637 635 632 632 633 633 629 623 620 620 621 621 621 622 622 622 622 623 623 624 624 625 626 626 627 628 628 629 629 630 630 631 631 632 633 635 638 640 642 643 645 647 648 650 653 655 657 659 662 665 668 671 673 675 677 680 683 687
706 703 701 698 695 691 688 686 683 681 679 677 675 673 670 668 666 664 661 659 657 655 654 652 650 647 644 641 638 636 636 637 636 632 626 622 622 622 622 622 622 622 622 622 622 622 623 623 623 623 624 624 625 625 625 625 626 626 627 628 629 630 633 635 636 637 639 640 642 643 645 647 649 652 654 657 660 663 665 668 671 673 676 679 683
708 706 704 701 699 696 694 691 689 686 684 682 680 677 675 673 672 670 668 666 664 661 659 657 654 651 648 645 642 641 640 641 640 636 630 626 625 624 623 623 623 623 622 622 622 622 622 622 622 622 622 622 622 622 622 622 622 622 623 624 625 627 628 630 632 633 634 635 637 638 640 642 645 647 649 652 655 657 660 662 665 669 671 674 677
711 709 707 705 703 701 698 696 693 691 689 686 684 682 680 678 676 674 672 670 668 666 663 661 658 655 652 650 648 646 645 645 644 640 635 631 628 627 626 625 624 624 624 623 622 621 621 621 621 621 620 620 620 619 619 619 619 619 620 621 622 623 624 625 627 628 630 631 632 634 635 638 640 643 645 648 650 653 655 658 662 665 667 669 672
714 712 710 708 706 704 701 699 696 694 692 690 688 686 685 683 681 679 676 674 672 670 668 665 662 660 657 655 653 651 649 648 646 642 638 634 632 630 629 629 628 627 626 625 623 622 621 620 620 619 619 618 617 616 616 616 616 616 617 618 618 619 620 621 623 624 625 627 629 630 631 633 635 638 641 643 646 649 651 654 658 661 664 666 669
Wind_Speed
31 31 33 36 35 32 29 30 27 23 23 25 28 30 31 30 29 28 27 27 27 28 29 30 31 32 31 32 33 33 34 34 34 34 35 35 35 33 31 32 32 32 30 30 30 30 30 29 29 28 27 27 28 27 28 27 26 25 24 24 24 23 22 21 16 13 15 15 14 13 12 12 13 14 15 17 18 20 21 20 20 19 18 16 14
31 29 29 30 31 31 28 25 23 19 18 21 25 27 29 29 27 27 26 26 26 27 29 29 30 31 31 32 33 34 34 35 35 34 35 35 35 34 33 33 32 31 30 30 31 30 30 29 28 28 27 28 28 27 27 27 27 26 25 25 25 24 23 24 20 15 15 15 14 14 14 14 14 14 16 17 18 19 20 20 21 20 18 16 15
30 29 28 27 27 27 27 26 23 22 21 22 23 23 24 25 25 26 27 27 27 27 28 29 30 31 32 32 33 34 34 35 35 35 36 36 35 34 34 34 33 32 31 31 31 30 30 29 28 28 27 27 28 27 27 27 27 27 26 26 25 25 24 24 23 19 16 15 14 14 14 14 15 15 16 17 17 19 19 20 20 20 19 17 16
29 29 29 29 27 24 26 28 28 27 28 30 31 28 25 23 24 25 27 28 28 29 29 30 31 32 33 33 34 34 35 35 36 36 36 36 36 35 34 34 33 32 32 32 31 31 31 30 29 28 28 28 28 28 27 28 28 28 27 26 26 25 24 24 24 22 19 16 14 14 13 13 14 15 16 16 17 18 19 19 20 20 19 18 17
30 29 29 30 29 27 28 32 34 32 31 34 38 37 33 30 29 28 28 29 29 29 30 31 32 34 34 35 35 35 36 36 36 37 37 37 36 35 34 34 33 33 32 32 31 31 31 31 30 29 29 29 29 28 28 28 28 28 28 27 26 25 24 23 23 22 20 18 15 14 13 13 14 15 16 16 17 18 19 20 20 20 20 20 19
31 31 30 29 28 27 29 33 36 35 33 34 37 36 34 33 33 32 31 31 30 30 31 32 34 35 36 36 36 37 37 37 37 37 38 38 36 35 34 33 33 33 32 32 31 31 31 31 30 30 30 30 29 29 29 29 29 29 29 28 27 25 24 22 21 20 20 20 18 16 15 14 14 15 15 16 17 18 19 20 20 21 22 22 21
29 31 32 30 28 28 29 31 33 32 30 31 32 31 30 30 30 31 32 32 31 31 31 33 34 36 36 36 37 38 37 37 38 38 38 38 36 35 33 33 33 33 33 32 32 32 32 31 31 30 30 30 30 29 29 29 29 29 29 28 27 25 24 22 20 19 19 19 18 17 17 16 15 14 15 15 15 16 18 20 21 23 25 25 23
27 29 30 28 29 31 32 31 30 28 26 26 27 26 27 29 29 29 29 30 31 32 32 33 33 34 35 37 37 37 37 37 38 37 37 37 36 35 34 33 33 33 33 32 32 31 31 31 31 31 31 30 29 28 28 28 29 29 29 28 26 25 24 22 20 19 19 18 18 17 17 16 15 14 13 13 15 17 19 21 23 24 26 26 25
26 27 27 28 30 31 30 28 28 26 24 24 23 23 25 28 31 31 30 29 29 30 32 33 33 33 34 36 36 36 37 38 39 38 37 36 36 35 34 34 34 34 33 32 31 31 31 32 32 32 31 30 29 28 27 27 27 28 28 27 27 26 25 22 20 19 19 18 17 16 15 16 17 17 16 17 19 20 20 22 23 24 25 27 26
26 27 27 28 29 29 26 25 25 24 23 23 23 23 24 24 26 28 30 32 31 28 27 27 28 30 32 34 34 35 36 38 38 39 38 37 35 34 34 34 34 34 33 31 31 31 31 32 32 32 31 30 29 28 27 27 27 26 26 26 26 26 25 23 21 20 19 19 19 18 17 18 20 21 21 22 22 20 20 23 24 23 22 23 24
27 28 29 29 28 28 27 25 24 23 23 24 25 25 25 25 25 25 28 31 33 32 31 30 30 30 30 31 31 33 36 37 37 37 38 38 36 34 34 34 33 33 33 32 31 31 31 32 32 32 31 30 29 28 27 27 27 26 25 25 25 24 24 23 23 22 21 20 20 20 21 22 22 23 23 22 22 22 22 23 25 23 21 19 18
28 29 29 29 28 28 28 27 25 24 25 26 27 28 29 29 28 28 29 30 30 29 30 33 35 34 34 32 31 33 35 35 35 36 37 37 37 36 34 33 32 33 33 33 31 31 32 32 32 32 32 31 31 29 28 27 27 26 25 25 25 24 23 22 22 22 22 21 21 22 24 24 23 23 24 23 23 24 23 22 24 25 24 22 20
28 28 28 28 29 29 28 27 26 25 26 27 28 29 31 31 30 31 33 33 31 28 27 29 31 33 34 33 33 36 37 34 34 35 36 37 37 37 35 33 33 33 33 33 32 32 32 32 32 32 32 32 31 30 29 28 27 27 26 25 25 25 24 23 23 22 22 22 22 24 25 24 23 24 24 23 24 24 24 24 25 26 26 25 25
25 25 25 26 27 26 25 26 26 27 28 28 28 28 29 30 31 33 32 30 30 29 29 30 32 34 35 33 32 37 39 36 33 33 34 36 37 38 37 35 34 34 34 34 34 34 34 34 33 33 33 32 32 31 30 28 28 28 27 27 27 27 26 25 25 25 24 23 23 24 24 23 23 23 22 22 24 25 26 26 27 27 28 27 25
23 23 22 23 23 23 24 25 26 26 27 26 27 28 28 29 30 31 31 29 30 30 30 32 34 35 37 35 31 34 38 38 35 32 31 34 36 38 38 36 35 35 36 36 36 36 35 35 34 34 34 34 33 32 30 29 29 29 29 29 29 29 28 28 27 27 26 25 24 23 21 21 20 19 19 21 23 25 26 26 25 26 26 24 21
22 22 22 22 23 24 25 26 26 26 26 25 25 26 28 30 30 31 30 30 30 29 29 31 33 35 38 37 34 35 38 39 38 34 32 35 38 39 39 37 36 36 37 37 38 37 36 36 36 35 35 35 34 32 30 29 29 30 30 30 29 30 30 28 27 26 25 24 22 20 19 18 17 17 18 20 22 25 27 24 23 23 22 19 17
21 23 24 24 25 26 26 27 27 27 27 27 28 29 29 30 31 30 30 30 30 30 31 33 36 38 40 39 38 38 39 40 40 38 36 37 39 40 40 38 36 36 37 37 37 37 37 38 38 37 36 35 34 32 30 30 30 31 30 30 29 30 30 28 27 26 25 23 21 20 19 18 18 18 19 19 21 25 26 24 22 22 22 18 16
16 20 23 24 24 25 26 27 27 27 28 30 31 31 31 31 30 30 31 31 32 33 34 35 37 39 39 38 38 39 40 41 41 40 39 39 39 40 41 40 37 36 36 37 37 37 38 39 39 39 38 36 34 32 31 30 31 32 31 30 29 30 29 27 26 26 25 24 23 22 21 21 21 21 20 21 22 25 27 27 25 25 24 22 19
11 14 19 20 21 23 24 26 27 27 29 31 32 31 31 31 31 31 32 32 32 33 33 34 36 38 38 38 38 39 41 43 42 41 40 39 39 40 41 39 35 35 36 36 36 37 38 39 40 40 39 37 34 32 31 31 32 32 32 31 30 30 30 28 27 27 27 26 25 23 22 22 22 22 22 22 23 24 26 28 29 28 27 26 24
14 12 13 15 18 21 23 26 27 28 30 31 31 31 31 30 30 31 31 32 32 32 33 35 37 38 38 39 39 40 42 43 43 42 42 41 40 40 40 38 35 36 35 34 33 34 36 38 40 41 41 39 35 33 32 32 32 33 33 33 32 31 29 27 27 27 27 26 24 22 21 20 21 22 23 24 24 24 25 28 31 31 29 29 29
16 14 13 12 14 18 23 26 28 29 31 31 29 29 29 29 30 31 31 32 32 32 33 35 37 37 38 37 38 39 43 44 44 42 42 43 42 41 40 39 38 37 35 33 32 33 35 38 40 41 42 40 38 36 33 32 33 34 35 34 31 29 27 26 26 26 26 26 23 21 20 19 20 22 24 25 26 25 26 28 31 32 32 30 30
17 15 14 13 12 14 19 24 27 29 30 29 27 28 28 28 28 29 29 30 30 31 32 33 34 35 35 34 35 37 41 43 43 42 40 41 41 42 42 42 42 40 36 32 32 34 37 39 41 43 43 42 41 39 36 33 33 34 36 33 29 28 27 26 24 25 26 25 23 22 21 20 21 22 24 26 26 27 27 29 30 32 33 33 31
19 17 16 15 15 14 15 19 24 27 29 29 28 28 28 27 27 27 27 28 27 27 28 29 29 30 31 31 32 35 38 40 41 41 40 39 40 42 43 43 43 42 38 34 35 38 40 40 41 43 43 43 43 42 39 35 33 35 36 33 30 30 29 27 25 25 25 25 24 23 23 22 22 23 25 26 27 27 28 28 29 31 33 33 33
22 20 19 18 17 17 17 18 20 23 26 27 27 27 27 27 26 27 27 27 26 25 26 26 25 26 27 27 28 32 35 35 37 39 41 41 41 42 42 42 44 45 42 40 40 41 41 42 42 42 43 44 44 43 41 37 35 35 35 33 31 31 30 29 28 26 25 26 26 25 24 24 23 24 26 26 26 26 27 27 28 31 33 33 33
21 21 21 21 21 20 20 20 20 22 24 25 26 27 27 26 26 27 27 27 26 25 24 25 24 24 24 25 27 30 32 31 31 33 36 39 41 41 41 42 45 48 47 45 44 43 42 42 41 40 41 44 44 43 42 40 36 35 35 34 33 33 33 32 30 28 28 28 28 27 26 25 24 24 25 25 25 25 26 27 29 31 33 33 32
20 20 21 22 22 22 21 22 23 24 24 25 27 28 27 27 26 26 26 26 26 25 24 23 23 23 23 25 26 28 29 28 28 30 32 34 37 39 40 41 45 49 50 47 44 41 38 38 38 39 40 42 43 43 43 41 38 35 35 35 36 36 36 34 33 32 31 30 30 29 28 26 25 25 25 25 26 26 27 28 30 32 33 32 31
20 20 21 22 23 22 23 23 24 25 25 26 27 27 27 27 27 25 25 25 24 23 23 23 23 22 23 25 26 27 27 27 28 29 31 33 35 37 40 41 44 48 51 48 42 37 34 34 36 37 39 40 42 42 42 40 38 37 37 38 39 38 38 37 37 35 34 34 32 31 28 27 26 27 27 26 27 27 28 29 31 32 32 31 30
21 20 21 21 22 22 23 24 24 25 26 27 28 28 28 28 28 28 29 28 27 25 25 24 25 26 26 25 25 25 26 27 29 30 33 36 38 39 40 41 42 45 47 46 43 38 34 32 32 34 36 38 38 39 38 38 38 39 40 41 41 40 39 38 37 36 35 34 32 30 29 29 28 27 28 28 28 29 30 31 31 32 32 31 29
22 20 20 20 20 21 23 24 25 25 26 27 30 32 32 32 32 32 34 34 33 31 29 29 30 31 30 28 26 24 24 29 33 35 37 40 43 43 43 43 43 44 45 45 44 40 33 30 31 33 36 37 35 34 36 36 37 38 40 41 41 40 39 39 38 37 36 34 32 31 31 30 29 28 28 28 29 30 31 33 33 32 31 32 32
22 20 20 19 20 21 22 24 25 26 27 27 29 31 34 35 35 34 34 36 37 36 34 33 34 34 32 32 33 31 31 34 37 38 41 44 45 45 44 44 44 44 43 44 43 37 32 31 33 34 35 35 33 32 34 35 35 35 37 38 39 39 40 41 41 40 38 37 35 34 33 32 31 30 30 30 30 31 32 34 34 33 33 34 33
21 20 19 20 22 24 24 24 25 27 28 28 28 28 29 32 36 37 35 34 34 35 36 37 37 35 33 34 35 36 37 37 36 36 38 41 43 44 44 43 42 41 41 40 39 34 30 30 31 32 33 33 32 34 36 36 36 36 35 35 37 39 40 41 42 41 40 39 37 35 35 35 34 33 33 32 32 33 34 34 34 34 35 37 36
21 20 19 21 24 25 25 26 27 27 28 28 28 27 25 24 27 33 37 35 33 34 35 37 38 39 38 37 35 34 36 37 37 36 36 36 38 41 41 41 41 40 38 38 36 33 31 30 30 30 31 32 34 38 38 36 36 36 34 33 36 39 42 43 42 41 41 41 39 38 37 36 35 35 34 34 33 34 35 35 36 36 36 36 36
24 22 22 24 25 24 23 24 26 27 27 26 26 25 23 21 20 23 30 34 34 34 35 36 37 39 40 40 39 37 37 37 37 37 37 36 37 36 36 38 40 39 37 36 33 30 30 30 30 31 32 33 36 38 38 37 37 36 35 35 37 41 44 44 41 40 41 42 42 42 42 41 39 36 35 34 34 34 34 36 38 37 36 35 35
30 28 29 30 27 24 27 27 23 26 25 24 24 23 22 22 20 18 19 22 25 29 33 36 38 38 38 39 40 41 41 41 40 37 35 35 36 35 33 34 35 34 34 35 33 30 30 29 29 32 34 35 36 36 36 36 36 35 35 36 37 39 40 39 37 39 41 41 40 41 42 42 40 38 36 35 34 33 33 35 37 37 36 35 34
33 32 33 34 31 28 34 34 21 21 24 21 20 20 19 19 19 19 17 16 16 19 26 32 37 39 39 39 39 40 42 43 43 42 38 35 33 31 29 27 25 25 28 32 32 32 32 31 31 33 35 36 36 36 35 35 35 35 35 36 36 35 34 35 37 40 40 39 39 39 38 37 37 39 40 38 36 35 34 34 36 38 38 37 35
33 32 33 36 35 33 37 37 22 9 19 21 20 20 18 17 17 19 19 18 17 17 20 24 28 31 34 37 38 39 40 41 42 43 41 38 33 30 28 26 24 25 28 32 33 35 36 35 33 33 35 36 36 36 36 35 36 37 37 37 36 35 35 37 39 40 40 40 40 38 35 35 37 40 40 38 37 39 39 38 38 39 39 38 36
31 32 33 36 37 36 36 35 23 12 9 6 9 12 14 16 18 19 18 18 18 17 19 21 21 20 22 27 31 34 36 39 40 40 38 34 30 29 29 28 28 28 30 32 34 35 36 36 35 34 34 36 36 36 36 36 36 36 36 36 35 35 36 38 40 40 41 41 39 37 36 38 40 41 40 38 37 39 39 38 37 38 39 39 36
31 32 35 38 38 37 34 32 24 24 26 22 17 11 5 1 7 12 15 17 18 17 17 18 18 17 18 21 23 26 28 29 31 32 32 28 26 27 29 30 30 30 31 32 35 36 37 38 39 37 36 37 37 36 36 36 35 35 35 35 35 34 35 36 37 39 40 39 38 38 40 41 41 42 42 40 38 37 37 37 37 36 37 37 36
33 34 37 39 38 34 31 27 25 28 28 27 25 23 19 16 11 7 6 8 11 13 15 16 17 19 20 20 20 20 20 21 23 25 26 27 27 29 30 30 30 30 30 31 34 35 36 38 38 38 37 37 35 35 34 34 34 35 35 34 34 33 33 34 36 37 38 39 39 40 42 43 43 42 41 39 38 38 39 40 40 38 36 36 38
33 32 35 38 37 33 29 26 27 29 28 26 26 25 22 20 18 15 13 11 9 9 9 11 14 17 20 21 23 22 21 21 23 24 24 25 27 28 29 30 30 30 31 32 33 35 36 37 38 38 38 37 36 35 35 35 35 34 34 34 34 34 35 37 38 38 39 40 41 41 42 43 42 40 39 40 41 41 41 40 39 38 38 39 40
33 32 34 35 34 33 32 31 31 30 29 27 27 25 24 22 21 19 18 17 16 15 14 11 11 13 14 16 21 25 26 26 25 26 26 27 27 29 31 32 32 32 33 34 35 35 36 38 39 39 38 38 38 37 37 36 35 34 33 33 34 36 37 37 38 39 40 40 41 41 42 43 42 41 41 44 44 43 41 40 40 41 41 40 39
32 31 32 33 32 31 32 32 32 31 30 29 28 26 25 23 22 21 19 18 18 17 16 15 17 16 13 13 15 18 24 27 26 25 26 27 28 28 30 32 32 33 34 36 37 37 36 38 39 40 40 40 39 38 38 37 36 36 35 35 36 37 37 38 39 41 42 41 42 43 44 44 44 44 44 45 43 40 39 40 40 41 41 39 39
30 30 31 31 31 31 31 30 31 30 29 28 27 26 26 24 23 22 20 19 20 19 17 17 20 22 19 16 14 14 16 20 22 21 21 22 24 25 27 28 30 32 34 36 37 38 37 37 38 38 38 39 40 40 40 39 39 38 37 37 38 39 40 40 41 42 42 42 43 44 44 44 45 44 43 42 41 40 41 40 39 38 39 39 38
28 29 30 31 31 31 31 31 31 30 29 27 25 25 25 24 23 23 22 22 22 21 20 19 20 23 24 22 20 19 18 15 14 13 12 13 15 17 19 21 23 26 29 32 34 34 34 33 33 33 34 35 37 37 37 37 38 38 38 38 39 40 41 42 43 44 46 46 45 44 44 44 44 43 42 42 41 40 40 40 39 37 37 36 36
27 28 29 29 30 31 31 31 31 30 30 29 27 27 26 25 24 24 24 24 24 23 23 24 24 24 25 26 25 24 23 20 15 9 5 5 8 9 11 13 15 17 20 24 27 29 29 27 26 26 28 30 32 35 36 37 37 38 39 41 42 43 44 46 46 47 47 47 45 44 44 43 43 42 41 42 42 41 40 40 39 38 37 36 37
26 26 27 28 29 29 29 30 31 30 31 30 29 29 28 28 28 27 26 27 27 25 24 26 26 26 26 26 26 26 25 22 19 16 13 11 9 8 7 8 9 10 12 16 19 23 25 25 24 23 24 24 26 29 31 33 35 36 38 40 42 44 45 46 45 44 44 44 44 44 42 41 41 42 41 40 40 39 39 39 39 39 39 39 39
24 25 26 27 28 28 28 29 29 29 30 30 29 29 29 28 28 29 29 29 29 28 27 27 27 26 26 27 27 28 28 25 23 22 22 20 17 14 12 10 9 8 8 9 11 14 18 21 23 24 24 24 24 24 25 27 29 31 34 37 40 41 42 42 42 42 43 44 44 44 42 40 39 39 39 38 37 37 37 37 38 38 39 38 37
23 23 24 25 27 28 29 29 29 29 29 28 27 28 29 29 29 29 29 29 29 28 28 27 27 26 27 28 28 29 29 27 26 27 29 28 25 22 18 16 14 12 11 10 9 9 11 12 15 17 19 21 22 22 23 24 24 26 29 33 36 38 40 41 42 42 43 43 43 42 41 40 39 38 38 38 38 38 38 37 36 37 36 35 35
22 22 23 24 26 27 28 30 30 29 28 27 26 27 27 28 29 30 30 29 29 29 28 27 26 26 27 28 28 29 28 27 27 28 30 31 31 29 27 24 21 19 17 15 14 12 11 11 11 12 13 14 16 17 18 20 21 23 26 28 31 33 36 39 41 42 41 41 41 41 40 40 39 38 38 39 40 39 38 37 37 37 37 35 35
22 21 22 22 23 25 27 29 29 29 28 27 28 28 28 27 29 31 32 31 31 32 31 29 28 27 27 27 27 27 27 26 26 27 29 31 32 32 31 30 28 27 25 23 20 18 15 14 13 12 12 12 12 13 14 15 17 19 22 24 26 29 32 35 37 38 39 39 39 39 39 39 39 38 38 39 39 38 38 37 36 36 36 35 34
22 21 21 22 22 23 25 27 27 28 28 28 28 28 28 28 29 31 33 33 33 34 33 32 31 30 29 28 27 26 26 27 28 30 31 32 32 32 32 31 31 30 29 28 27 25 22 20 17 14 13 12 12 12 13 13 14 16 17 19 22 25 28 31 33 35 37 38 38 38 38 39 39 39 38 38 38 37 37 37 36 35 35 34 34
Wind_Direction
214 210 212 214 215 215 212 211 223 249 258 242 224 216 215 216 219 219 219 219 216 214 214 214 214 214 211 210 210 209 210 211 212 213 215 216 218 219 219 219 219 220 222 223 224 226 227 229 232 233 233 233 233 234 234 234 233 233 232 229 225 224 223 219 222 245 255 259 262 263 268 271 265 260 257 252 246 241 238 238 240 244 244 239 236
213 209 207 205 203 204 207 206 210 228 247 245 234 225 219 217 219 219 220 221 220 217 216 216 216 216 215 212 211 210 210 211 212 213 214 216 217 217 218 218 219 220 221 223 225 226 228 229 231 232 231 232 233 233 233 232 231 231 229 226 223 220 222 225 227 236 250 253 256 259 263 266 264 263 261 257 250 244 240 238 237 238 237 232 231
213 210 205 202 199 202 208 210 216 222 222 223 227 228 226 223 220 221 222 223 223 221 219 219 219 218 217 216 214 212 211 212 213 214 215 216 216 216 217 218 219 219 221 224 226 226 228 229 230 230 229 229 231 232 233 232 231 231 230 229 225 220 222 229 230 232 241 247 251 255 258 262 263 263 262 258 251 246 243 242 238 234 230 226 227
211 210 210 209 207 210 216 216 218 221 218 216 217 220 224 226 225 225 225 224 224 223 221 220 220 220 219 217 216 215 214 213 213 214 216 218 218 217 217 218 219 221 223 226 227 227 228 228 228 228 227 227 229 230 231 231 231 231 231 232 231 225 223 229 232 234 238 240 246 252 256 260 261 261 258 253 248 244 242 242 238 233 227 223 225
210 209 210 208 203 203 210 211 210 213 216 218 219 219 220 220 221 223 224 223 223 221 220 219 219 220 219 219 218 218 217 216 214 215 217 219 220 219 219 219 219 222 225 227 228 228 229 230 228 227 225 225 227 229 230 230 230 230 231 232 233 230 226 227 231 234 235 236 241 247 252 256 256 255 253 248 242 238 236 237 235 230 223 221 225
210 212 216 216 207 200 202 205 206 208 212 218 222 220 218 215 214 217 219 221 221 220 218 218 218 219 220 220 220 220 220 218 217 217 218 219 219 219 219 220 220 222 225 227 228 229 231 231 230 228 226 226 227 230 231 230 228 229 230 232 233 232 229 227 227 229 232 236 239 241 247 253 253 247 244 243 240 235 232 232 230 226 221 221 225
209 210 215 221 221 214 208 208 209 208 210 219 223 220 215 213 212 214 216 217 219 220 219 218 218 219 220 221 221 222 221 220 219 219 219 219 219 218 218 218 220 222 225 227 228 230 232 232 231 230 230 230 231 232 232 231 229 230 232 233 233 231 229 227 224 223 226 230 233 237 242 246 243 237 237 237 236 235 232 227 224 221 220 222 226
207 207 209 213 221 225 221 216 214 209 205 212 219 218 214 213 212 214 215 216 219 220 220 220 219 219 221 222 223 222 221 221 222 220 219 219 218 218 217 217 219 221 224 226 227 229 232 233 232 232 234 234 235 236 235 233 231 231 233 234 232 230 228 225 221 218 219 222 227 233 235 233 228 225 224 220 218 224 228 225 224 224 221 223 227
205 205 207 209 215 222 223 218 212 205 198 201 211 217 216 215 214 213 213 215 218 222 223 222 219 219 222 224 224 223 222 223 223 222 220 219 218 218 217 218 219 221 222 223 226 228 230 232 233 234 236 238 239 239 240 240 237 235 235 233 231 229 228 224 218 213 211 212 217 221 220 220 218 212 209 213 219 226 226 221 223 228 224 224 227
204 201 203 208 210 212 214 213 207 201 196 198 207 213 217 218 215 211 210 211 213 217 221 222 221 222 224 225 224 224 224 225 226 225 222 220 219 217 217 219 220 220 221 222 224 227 230 232 234 235 237 239 240 240 242 243 242 241 240 238 234 231 227 222 217 210 205 204 207 208 207 214 218 215 218 225 228 229 224 216 217 221 220 223 230
202 201 202 205 205 203 204 205 203 200 199 201 206 211 215 218 216 214 214 214 214 213 214 218 222 224 227 230 229 228 229 229 228 227 226 224 221 219 218 219 219 219 221 222 224 227 229 232 234 235 235 237 238 239 241 242 242 242 242 242 241 238 231 224 217 212 207 205 207 207 210 217 224 225 226 229 228 226 224 218 213 210 209 213 224
200 201 201 200 200 200 202 203 202 200 201 205 208 212 216 219 219 221 224 224 223 218 213 216 220 221 222 226 230 233 236 235 232 230 228 227 224 222 221 221 220 220 222 223 225 228 230 231 233 234 234 236 237 237 238 239 240 240 241 243 244 242 239 233 226 218 212 209 207 210 217 224 229 231 231 231 230 226 222 217 213 211 209 210 217
201 202 201 199 200 201 201 201 202 203 205 209 212 213 214 216 219 224 227 226 223 218 214 216 219 220 221 221 224 230 236 239 239 234 230 228 227 225 223 223 223 223 223 224 225 227 230 231 231 232 235 236 236 237 237 237 238 238 238 240 240 239 238 238 237 234 228 221 216 220 227 231 234 240 244 241 234 223 215 215 216 215 213 216 225
204 204 203 202 203 203 201 201 202 206 209 209 210 211 212 213 217 221 222 219 214 210 210 214 218 222 225 223 224 229 233 235 240 240 235 230 228 225 224 224 226 226 227 226 226 228 230 231 231 233 235 234 234 235 236 236 236 235 234 234 235 235 234 234 235 236 235 232 227 230 236 239 243 253 257 250 239 229 223 221 220 219 218 223 231
207 207 207 207 207 206 205 206 206 207 209 207 207 208 210 212 214 216 215 212 212 210 210 214 217 221 224 224 224 230 232 231 233 240 242 237 232 226 224 224 226 227 228 229 229 230 231 232 233 234 235 235 235 235 236 235 234 233 231 231 232 233 234 235 235 235 236 235 232 232 237 242 250 258 259 254 249 243 238 235 232 227 222 221 225
209 211 211 211 212 211 211 211 210 210 210 208 207 207 208 210 212 213 212 211 212 212 211 214 218 220 222 223 223 228 233 231 229 232 237 240 236 228 222 222 224 226 227 230 230 230 231 233 234 234 235 236 237 237 237 236 233 231 230 230 231 233 235 237 238 239 239 237 233 232 236 243 250 254 255 256 254 246 238 234 230 223 213 209 213
212 215 215 215 216 215 215 214 213 211 208 206 207 208 210 212 212 210 209 209 209 210 211 216 220 222 222 222 221 225 230 231 231 230 230 232 232 226 221 222 223 225 227 230 230 229 229 231 233 233 233 236 238 237 235 233 231 229 228 228 229 231 234 237 237 236 235 234 233 233 236 242 247 249 250 251 252 245 231 221 218 214 204 198 203
230 224 223 222 221 218 217 216 214 210 206 205 207 208 210 214 214 211 209 209 209 211 213 216 220 222 221 221 222 225 230 231 233 234 231 228 227 224 221 222 222 224 227 230 231 230 230 231 232 232 232 235 237 236 233 230 228 228 226 225 225 227 231 234 233 230 228 227 229 231 233 239 244 247 246 244 246 244 232 225 224 216 204 201 205
286 256 240 234 229 225 221 218 215 212 209 209 211 211 211 214 216 214 212 212 213 214 214 217 221 222 221 222 222 224 229 233 234 234 233 230 226 221 218 219 222 224 226 228 230 229 230 231 232 233 233 234 234 233 231 229 227 228 227 223 221 226 232 235 233 230 226 224 226 229 233 239 243 243 241 240 241 243 239 236 232 222 211 209 208
331 309 277 255 242 232 225 221 218 215 216 217 217 216 215 215 214 213 212 214 217 218 218 220 224 225 224 223 223 223 227 231 231 231 232 230 227 220 214 215 221 224 225 227 228 228 228 230 231 233 233 233 232 230 229 228 229 230 227 222 222 230 237 237 234 232 229 228 230 233 236 239 239 237 236 236 237 237 236 234 234 230 223 216 210
336 332 315 290 262 242 232 227 223 221 223 223 221 220 220 218 216 214 213 214 215 217 220 222 225 228 227 225 224 224 226 228 229 230 231 230 227 222 215 215 221 224 225 227 226 227 228 228 230 233 232 231 231 228 226 226 228 230 229 228 232 239 241 238 236 232 229 229 230 231 231 232 232 232 233 234 233 233 230 229 231 233 230 224 216
330 326 319 309 290 262 243 234 230 228 228 226 223 223 223 221 219 215 212 211 212 214 218 220 223 228 229 225 223 224 225 226 227 227 230 232 231 226 219 219 222 223 223 225 225 227 229 229 231 234 232 230 229 228 225 224 225 229 232 234 237 240 239 238 237 231 227 226 225 223 222 223 225 227 230 231 230 229 227 226 228 231 233 232 230
328 320 311 303 296 284 266 248 238 234 232 229 226 226 225 221 218 215 211 210 211 214 218 220 222 227 230 227 224 224 225 226 225 225 227 230 233 230 225 223 224 222 221 222 224 227 230 230 231 234 234 231 229 227 225 221 221 227 232 233 234 235 235 234 231 227 224 222 220 217 216 218 221 225 228 229 229 228 227 227 229 230 231 233 234
332 324 315 304 294 288 281 270 255 244 239 234 229 227 226 221 217 215 213 212 213 217 221 222 222 226 230 230 227 226 226 226 226 226 225 226 228 231 229 227 226 224 222 223 226 228 229 229 230 233 235 233 230 228 225 222 221 225 229 229 229 230 228 226 224 222 219 216 215 214 215 217 221 226 230 232 231 229 228 228 229 229 229 230 232
333 326 319 311 302 294 288 280 270 258 248 238 231 228 226 221 217 214 212 211 212 216 221 223 222 224 228 230 230 229 229 228 227 228 228 227 227 229 230 228 226 224 222 224 227 228 230 230 230 233 236 234 231 228 225 224 223 225 226 226 225 224 223 222 220 217 214 213 214 215 217 220 224 230 234 234 230 228 227 226 226 226 226 227 230
331 325 320 313 307 302 293 282 274 267 257 244 235 231 226 221 218 215 210 209 211 215 218 221 222 224 227 230 232 232 231 229 227 228 229 230 229 229 229 227 224 223 223 225 227 230 231 231 231 233 234 234 230 226 225 225 223 222 223 223 222 221 220 219 216 214 213 214 215 218 222 225 227 228 229 228 226 225 225 225 224 224 224 225 226
330 325 321 314 308 303 295 286 278 271 262 249 238 232 227 222 219 215 210 208 209 213 216 218 220 223 226 228 231 233 233 230 227 227 228 229 229 229 229 226 224 223 223 224 225 228 230 231 231 232 233 233 230 227 226 225 221 218 218 220 220 220 221 221 221 220 219 219 219 222 224 225 223 222 222 223 224 224 223 224 224 224 223 222 221
330 325 321 314 308 302 295 288 281 272 262 251 239 231 225 220 217 216 214 211 208 208 211 214 217 220 224 225 226 229 231 229 226 225 226 227 229 228 227 226 225 223 223 224 225 227 228 228 226 225 226 227 225 222 222 222 220 218 217 217 218 218 219 221 222 223 223 222 221 220 218 218 219 219 219 220 221 221 221 222 223 223 221 216 212
329 325 321 314 308 302 294 286 278 269 261 252 243 236 230 223 219 220 220 218 216 215 213 214 218 221 223 224 222 221 224 228 228 229 230 232 232 230 227 228 227 225 225 225 224 222 221 218 214 213 214 217 216 215 216 217 217 216 216 214 213 213 213 215 216 219 220 219 217 216 214 215 217 217 216 216 217 218 219 219 219 219 216 211 208
325 321 319 315 309 302 292 282 274 265 258 250 243 239 237 232 227 226 226 225 226 226 224 224 226 225 224 227 227 226 228 233 235 234 234 235 235 234 234 234 232 229 226 224 219 215 211 209 208 207 208 210 210 211 213 213 212 213 213 211 210 210 211 212 215 217 218 217 216 215 213 212 213 213 212 212 212 213 216 217 217 214 210 207 206
320 314 313 313 310 302 289 278 270 260 252 247 240 236 235 233 231 230 231 231 231 232 233 235 234 231 229 232 234 235 237 240 241 239 237 237 237 237 237 236 234 232 229 221 213 209 206 204 205 207 208 210 211 214 215 213 211 210 209 208 209 211 211 213 214 214 214 214 213 212 212 212 212 212 212 211 209 210 212 213 212 212 210 208 207
320 313 311 314 312 304 289 275 264 254 247 242 237 232 230 229 228 229 229 230 232 234 236 239 239 237 235 236 238 239 241 243 243 242 241 241 241 240 239 237 235 235 230 219 211 207 204 203 206 209 210 211 215 218 219 216 213 211 207 205 207 210 212 215 215 213 213 213 211 210 211 212 212 212 213 211 208 207 208 209 209 209 209 209 210
329 324 325 323 317 313 305 285 260 243 238 235 230 228 226 223 224 226 225 227 230 233 236 239 241 241 240 239 240 242 244 247 248 246 244 244 244 244 243 240 237 234 224 213 208 207 206 207 210 213 214 215 217 220 221 218 216 213 210 208 210 213 215 216 214 212 213 214 213 211 211 211 211 211 211 210 207 205 205 207 208 208 208 210 211
339 337 336 331 326 331 333 315 271 235 228 229 225 225 226 223 223 225 221 220 225 229 233 236 239 241 242 242 242 244 245 247 249 248 247 247 246 246 245 240 235 230 220 212 209 210 211 212 213 216 218 220 221 221 222 220 218 215 213 213 216 217 217 215 212 212 214 215 215 214 212 210 208 207 206 207 206 205 205 206 206 206 207 210 211
343 342 341 338 338 347 347 332 294 229 216 219 219 220 226 227 227 229 226 221 220 223 228 232 235 238 241 242 243 244 246 247 248 248 247 247 246 243 236 227 219 214 212 211 211 213 215 217 216 217 220 222 223 223 222 221 219 217 216 216 218 217 214 211 211 213 214 214 215 217 215 210 207 206 207 205 203 202 204 206 206 207 208 209 210
344 344 344 344 347 355 350 337 322 230 203 211 213 215 222 225 227 231 232 233 233 231 233 237 239 240 243 245 246 247 247 247 248 248 246 246 244 235 222 210 204 202 204 207 210 214 219 222 221 220 221 222 224 225 224 222 221 220 219 219 218 215 211 211 212 213 214 214 216 215 213 211 210 209 209 207 204 203 206 207 207 209 209 209 209
345 346 347 346 352 358 348 334 342 38 88 153 189 200 213 221 225 229 231 233 236 239 242 246 248 247 246 248 249 250 250 250 250 249 248 246 242 232 221 212 207 206 206 207 209 213 219 225 225 223 222 222 222 224 224 224 224 224 222 222 220 216 213 213 214 214 214 215 215 212 211 213 214 211 209 207 206 206 207 207 207 209 210 209 209
348 349 351 352 357 359 346 331 348 32 48 50 52 57 63 195 236 239 238 237 236 237 242 248 251 250 249 252 255 256 255 253 250 248 246 242 236 230 223 216 212 210 210 211 211 213 218 224 227 226 224 222 221 222 223 224 224 224 224 223 221 219 217 216 216 216 216 215 214 212 212 214 215 214 212 210 208 205 205 206 207 207 208 207 206
351 351 354 358 1 357 345 340 360 24 36 40 40 40 39 37 27 360 315 276 255 247 244 244 246 248 251 254 257 257 254 248 244 243 241 237 232 229 224 218 215 214 214 214 215 216 219 224 228 229 228 227 226 226 225 225 225 224 224 223 221 219 217 216 215 216 216 215 215 214 215 216 217 215 213 212 210 207 205 206 206 205 203 204 206
354 353 355 359 0 355 350 357 12 21 26 32 33 33 32 29 25 21 15 5 348 324 296 271 262 261 259 255 250 245 240 239 240 241 239 235 232 229 225 220 218 217 218 219 220 221 223 226 230 232 234 234 233 231 229 228 227 226 225 223 221 219 219 218 217 217 217 217 217 216 216 217 217 215 213 213 213 211 208 206 205 205 205 207 208
355 355 355 359 360 357 358 5 12 17 22 26 28 29 27 23 21 21 19 17 12 4 353 338 321 306 290 276 261 248 239 237 240 241 239 237 234 231 228 225 223 221 221 223 225 225 226 228 230 232 234 235 235 233 231 230 229 227 226 224 222 222 221 220 219 219 219 219 218 217 218 218 216 214 213 214 215 213 209 206 205 206 208 209 209
357 357 357 359 0 1 3 5 8 13 18 21 22 25 25 23 22 21 18 17 16 12 6 1 356 348 334 317 297 270 249 240 238 239 239 239 237 235 232 230 227 225 225 227 229 230 230 231 232 232 233 233 233 232 230 228 227 226 225 223 222 222 221 221 221 221 221 220 220 219 219 218 216 216 216 215 214 212 209 208 207 206 206 206 207
358 359 0 2 3 4 6 6 7 11 14 15 18 21 22 23 22 20 18 19 18 16 13 8 6 7 5 354 340 318 286 260 246 241 242 242 241 241 240 237 234 232 231 232 233 234 234 234 235 235 234 233 233 231 230 228 226 225 224 223 222 222 223 222 221 220 220 221 221 221 219 218 217 216 216 215 213 211 210 209 208 207 206 205 204
1 2 4 5 6 6 7 7 8 9 10 13 16 19 21 22 21 19 18 18 16 16 16 11 10 13 15 12 9 4 348 318 283 263 257 256 256 255 252 249 244 240 236 235 235 236 237 238 239 240 239 238 237 235 233 232 229 226 225 225 224 225 225 223 222 222 221 221 221 220 219 218 216 215 214 213 211 210 209 208 206 205 205 203 202
4 5 6 7 8 8 8 8 8 9 10 13 15 15 16 18 18 16 17 17 15 15 17 16 15 17 17 15 15 15 9 355 338 331 330 308 291 283 276 270 263 253 247 244 241 241 242 243 245 246 245 243 241 239 238 237 235 232 230 229 227 228 228 228 227 227 224 222 220 220 219 218 216 214 213 212 210 209 208 207 205 203 202 201 203
4 6 8 9 9 9 9 9 9 11 13 14 14 13 13 14 15 14 14 14 14 14 15 17 18 19 20 19 17 16 14 5 356 1 21 27 11 352 335 315 298 281 270 262 255 250 248 248 249 250 248 246 245 243 242 241 239 238 236 234 233 233 233 233 231 229 227 224 223 221 220 218 217 215 214 213 210 209 208 207 204 202 201 201 204
6 8 11 12 11 11 12 11 10 12 14 15 14 14 13 13 13 13 12 12 13 13 14 15 16 18 21 23 23 21 20 13 6 12 27 35 31 25 19 9 357 340 319 299 283 272 264 259 258 258 256 254 254 253 251 249 247 244 243 241 239 238 238 237 234 233 232 230 227 224 221 219 218 216 214 212 209 209 209 208 206 205 204 203 204
8 10 11 13 14 15 15 14 13 14 15 15 16 16 16 16 16 15 14 13 14 13 13 13 14 16 19 23 25 25 24 19 16 20 30 37 37 36 33 29 22 13 3 352 337 320 305 290 280 273 268 264 263 261 259 257 254 251 249 247 244 243 242 241 238 236 236 234 231 227 223 220 218 216 213 211 210 209 209 208 207 206 204 203 204
8 10 12 14 16 17 18 18 19 19 17 17 18 19 19 19 19 18 17 17 17 17 15 12 12 14 17 20 24 26 26 22 17 19 27 34 37 39 40 40 37 32 25 18 10 358 345 332 317 304 293 283 276 271 266 262 259 256 253 250 248 247 245 243 240 239 238 236 233 229 224 221 219 217 214 212 211 210 209 207 206 204 202 201 201
9 9 10 13 15 16 18 20 22 22 20 20 22 22 20 21 22 23 22 20 19 19 18 16 15 15 16 18 20 23 24 22 19 19 24 30 34 36 39 40 41 40 38 34 29 23 13 0 345 331 321 312 302 293 285 277 272 267 262 258 256 253 249 245 243 240 238 236 233 228 223 220 218 217 215 213 211 209 207 206 205 203 200 198 196
11 8 8 10 10 13 16 18 19 20 20 21 22 22 21 21 23 25 25 24 22 19 19 20 20 20 19 19 20 21 22 22 22 22 24 28 31 34 35 36 37 38 38 37 36 34 30 23 13 359 346 335 326 318 311 302 294 285 276 270 267 263 257 252 247 243 240 236 232 228 225 221 217 216 215 212 209 207 206 204 202 200 198 195 193